Flag for Germany Weather past 2 weeks in Georgsmarienhütte, Lower Saxony, Germany

Now
54 °F

Fog.


Feels Like: 52 °F
Forecast: 45 / 57 °F
Wind: 6 mph from Southwest

Location: Muenster / Osnabrueck

Current Time: Oct 25, 2014 at 12:19:33 PM

Latest Report: Oct 25, 2014 at 11:50 AM


Visibility: 2 mi

Pressure: 30.07 "Hg

Humidity: 100%

Dew point: 54 °F

Location of GeorgsmarienhütteLocation

Historic Weather in Georgsmarienhütte — Graph

°F

Georgsmarienhütte temperature yesterday

Maximum temperature yesterday: 55 °F (at 11:20 AM)
Minimum temperature yesterday: 52 °F (at 12:20 AM)
Average temperature yesterday: 53 °F

Past Weeks' High & Low Weather Summary

 TemperatureHumidityPressure
High73 °F (Oct 19, 1:50 PM)100% (Oct 10, 10:50 PM)30.21 "Hg (Oct 10, 10:50 PM)
Low45 °F (Oct 11, 7:20 AM)52% (Oct 14, 2:20 PM)29.45 "Hg (Oct 21, 4:20 PM)
Average56 °F87%29.89 "Hg
* Reported Oct 10 11:20 AM — Oct 25 11:20 AM, Georgsmarienhütte, Weather by CustomWeather, © 2014

Note: Actual official high and low records may vary slightly from our data, if they occured in-between our weather recording intervals... More about our weather records

Advertising

Georgsmarienhütte weather history for previous 24 hours

 ConditionsComfort  
Time TempWeatherWind HumidityBarometerVisibility
11:20 AM
Oct 25
54 °FFog.6 mph100%30.07 "Hg1 mi
10:50 AM54 °FFog.6 mph100%30.07 "Hg1 mi
10:20 AM52 °FFog.7 mph100%30.07 "Hg2 mi
9:50 AM52 °FDrizzle. Fog.6 mph100%30.04 "Hg1 mi
9:20 AM52 °FDrizzle. Fog.6 mph100%30.04 "Hg1 mi
8:50 AM52 °FFog.6 mph100%30.04 "Hg2 mi
8:20 AM52 °FFog.5 mph100%30.04 "Hg2 mi
7:50 AM52 °FFog.6 mph100%30.04 "Hg2 mi
7:20 AM52 °FFog.6 mph100%30.01 "Hg2 mi
6:50 AM52 °FPassing clouds.6 mph100%30.01 "Hg4 mi
6:20 AM52 °FPassing clouds.6 mph94%30.01 "Hg4 mi
5:50 AM52 °FPassing clouds.7 mph94%30.01 "Hg5 mi
5:20 AM52 °FPassing clouds.6 mph94%30.01 "Hg6 mi
4:50 AM50 °FPassing clouds.6 mph100%30.01 "Hg6 mi
4:20 AM50 °FPassing clouds.6 mph100%30.01 "Hg6 mi
3:50 AM50 °FLight rain. Passing clouds.5 mph100%30.01 "Hg4 mi
3:20 AM52 °FLight rain. Mostly cloudy.5 mph88%30.01 "Hg6 mi
2:50 AM54 °FLight rain. Partly cloudy.5 mph82%30.04 "Hg6 mi
2:20 AM54 °FPassing clouds.6 mph77%30.04 "HgN/A
1:50 AM54 °FPartly cloudy.7 mph77%30.04 "HgN/A
1:20 AM54 °FPassing clouds.7 mph77%30.04 "HgN/A
12:50 AM54 °FPassing clouds.7 mph77%30.04 "HgN/A
12:20 AM54 °FPassing clouds.7 mph77%30.04 "HgN/A
11:50 PM
Oct 24
54 °FPassing clouds.8 mph77%30.04 "HgN/A
11:20 PM54 °FPassing clouds.8 mph77%30.04 "HgN/A
10:50 PM54 °FPassing clouds.7 mph82%30.04 "HgN/A
10:20 PM54 °FPassing clouds.7 mph77%30.04 "HgN/A
9:50 PM54 °FPassing clouds.6 mph77%30.04 "HgN/A
9:20 PM54 °FLight rain. Passing clouds.6 mph77%30.04 "HgN/A
8:50 PM54 °FPassing clouds.6 mph77%30.04 "HgN/A
8:20 PM54 °FPassing clouds.5 mph82%30.04 "HgN/A
7:50 PM54 °FPartly cloudy.6 mph82%30.04 "HgN/A
7:20 PM54 °FPassing clouds.6 mph82%30.07 "HgN/A
6:50 PM54 °FPartly sunny.6 mph77%30.07 "HgN/A
6:20 PM55 °FPartly sunny.6 mph72%30.07 "HgN/A
5:50 PM55 °FBroken clouds.8 mph77%30.07 "HgN/A
5:20 PM55 °FPartly sunny.6 mph72%30.07 "HgN/A
4:50 PM55 °FPartly sunny.8 mph72%30.07 "HgN/A
4:20 PM55 °FBroken clouds.8 mph72%30.07 "HgN/A
3:50 PM55 °FBroken clouds.10 mph72%30.09 "HgN/A
3:20 PM55 °FBroken clouds.10 mph72%30.09 "HgN/A
2:50 PM55 °FBroken clouds.9 mph72%30.09 "HgN/A
2:20 PM55 °FBroken clouds.9 mph72%30.09 "HgN/A
1:50 PM55 °FBroken clouds.9 mph72%30.12 "HgN/A
1:20 PM55 °FBroken clouds.9 mph77%30.12 "HgN/A
12:50 PM55 °FBroken clouds.8 mph72%30.12 "HgN/A
12:20 PM55 °FBroken clouds.9 mph77%30.12 "HgN/A
Weather by CustomWeather, © 2014

See weather overviewHow to use our weather pages